Content
SEND FEEDBACK

Daily
Averages
Monthly
Summary
United States of America

NEVADA CITY, CALIFORNIA


Home > North America > United States > California
Elevation: 2934 feet     Latitude: 39 18N     Longitude: 121 00W

WEATHER
 
SELECT A DAY
Number of Records: 61,414;   Date Range: 9/21/11 - 8/26/14
 
SHARE

PRINT THIS DATA

[ ← Previous Day ]
WEATHER ALMANAC - DECEMBER 31, 2013
[ Next Day → ]
[ °C ]   °F
Weather ElementAverageHighLow
Temperature54.2 °F62.6 °F (2:15 pm)50 °F (12:35 am)
Dewpoint17.8 °F26.6 °F (5:15 pm)10.4 °F (5:55 am)
Humidity24.7 %40 % (5:15 pm)13 % (2:15 pm)
Barometer30.23 in30.28 in (9:35 am)30.19 in (6:15 pm)
Wind Speed0.8 mph5.8 mph (2:55 pm)
Weather ElementAverage
Visibility10 mi
Wind DirectionNNE (34.5 °)

Weather ElementTotal
Precipitation---
Heating Degree Days8.7 (Base 65)
Growing Degree Days6.3 (Base 50)
Averaged from 71 records on December 31, 2013
WEATHER CONDITIONS BREAKOUT
WIND DIRECTION BREAKOUT
WEATHER BY HOUR - DECEMBER 31, 2013
[ °C ]   °F
Local TimeTemperatureDewpointHumidityBarometerVisibilityWind DirectionWind SpeedGust SpeedPrecipitationEventsConditions
12:35 AM50.0 °F17.6 °F28 %30.25 in10.0 miCalmClear
12:55 AM51.8 °F17.6 °F26 %30.24 in10.0 miCalmClear
1:15 AM51.8 °F17.6 °F26 %30.25 in10.0 miCalmClear
1:35 AM50.0 °F17.6 °F28 %30.25 in10.0 miCalmClear
1:55 AM51.8 °F17.6 °F26 %30.25 in10.0 miCalmClear
2:15 AM51.8 °F17.6 °F26 %30.26 in10.0 miCalmPartly Cloudy
2:35 AM50.0 °F17.6 °F28 %30.25 in10.0 miCalmScattered Clouds
2:55 AM51.8 °F17.6 °F26 %30.25 in10.0 miCalmPartly Cloudy
3:15 AM51.8 °F15.8 °F24 %30.25 in10.0 miESE (120°)4.6 mphPartly Cloudy
3:35 AM51.8 °F15.8 °F24 %30.24 in10.0 miESE (120°)4.6 mphPartly Cloudy
3:55 AM53.6 °F15.8 °F22 %30.25 in10.0 miCalmClear
4:15 AM53.6 °F15.8 °F22 %30.24 in10.0 miCalmClear
4:35 AM51.8 °F15.8 °F24 %30.23 in10.0 miESE (120°)3.5 mphClear
4:55 AM53.6 °F15.8 °F22 %30.23 in10.0 miESE (120°)4.6 mphClear
5:15 AM51.8 °F14.0 °F22 %30.23 in10.0 miESE (120°)3.5 mphClear
5:35 AM51.8 °F14.0 °F22 %30.23 in10.0 miCalmClear
5:55 AM53.6 °F10.4 °F18 %30.23 in10.0 miESE (120°)3.5 mphClear
6:15 AM53.6 °F10.4 °F18 %30.24 in10.0 miESE (120°)3.5 mphClear
6:35 AM53.6 °F10.4 °F18 %30.25 in10.0 miCalmClear
6:55 AM51.8 °F10.4 °F19 %30.25 in10.0 miCalmClear
7:15 AM53.6 °F10.4 °F18 %30.25 in10.0 miCalmClear
7:35 AM53.6 °F10.4 °F18 %30.26 in10.0 miCalmClear
7:55 AM53.6 °F10.4 °F18 %30.26 in10.0 miESE (120°)3.5 mphClear
8:15 AM53.6 °F10.4 °F18 %30.26 in10.0 miCalmClear
8:35 AM53.6 °F10.4 °F18 %30.26 in10.0 miCalmClear
8:55 AM53.6 °F12.2 °F19 %30.27 in10.0 miCalmClear
9:15 AM55.4 °F14.0 °F20 %30.27 in10.0 miCalmClear
9:35 AM55.4 °F17.6 °F23 %30.28 in10.0 miCalmPartly Cloudy
9:55 AM55.4 °F14.0 °F20 %30.28 in10.0 miCalmClear
10:15 AM57.2 °F14.0 °F18 %30.28 in10.0 miCalmPartly Cloudy
10:35 AM57.2 °F15.8 °F20 %30.28 in10.0 miCalmScattered Clouds
10:55 AM57.2 °F19.4 °F23 %30.27 in10.0 miCalmPartly Cloudy
11:15 AM57.2 °F17.6 °F21 %30.26 in10.0 miCalmPartly Cloudy
11:35 AM57.2 °F17.6 °F21 %30.25 in10.0 miCalmClear
11:55 AM59.0 °F17.6 °F20 %30.24 in10.0 miCalmClear
12:15 PM59.0 °F15.8 °F19 %30.23 in10.0 miCalmClear
12:35 PM59.0 °F15.8 °F19 %30.22 in10.0 miCalmClear
12:55 PM59.0 °F14.0 °F17 %30.22 in10.0 miCalmClear
1:15 PM59.0 °F10.4 °F15 %30.21 in10.0 miCalmClear
1:35 PM59.0 °F12.2 °F16 %30.21 in10.0 miCalmClear
1:55 PM60.8 °F12.2 °F15 %30.20 in10.0 miCalmClear
2:15 PM62.6 °F10.4 °F13 %30.20 in10.0 miWest (260°)3.5 mphClear
2:35 PM60.8 °F15.8 °F17 %30.20 in10.0 miCalmClear
2:55 PM60.8 °F21.2 °F22 %30.20 in10.0 miWNW (290°)5.8 mphClear
3:15 PM59.0 °F21.2 °F23 %30.20 in10.0 miWNW (290°)4.6 mphClear
3:35 PM59.0 °F21.2 °F23 %30.20 in10.0 miWNW (300°)4.6 mphClear
3:55 PM59.0 °F23.0 °F25 %30.20 in10.0 miNW (320°)4.6 mphClear
4:15 PM57.2 °F24.8 °F29 %30.20 in10.0 miCalmClear
4:35 PM55.4 °F24.8 °F31 %30.20 in10.0 miCalmClear
4:55 PM53.6 °F24.8 °F33 %30.20 in10.0 miCalmClear
5:15 PM50.0 °F26.6 °F40 %30.20 in10.0 miCalmClear
5:35 PM50.0 °F26.6 °F40 %30.20 in10.0 miCalmClear
5:55 PM50.0 °F24.8 °F37 %30.20 in10.0 miCalmClear
6:15 PM50.0 °F24.8 °F37 %30.19 in10.0 miCalmClear
6:35 PM50.0 °F24.8 °F37 %30.19 in10.0 miNNE (30°)3.5 mphClear
6:55 PM50.0 °F23.0 °F35 %30.19 in10.0 miCalmClear
7:15 PM50.0 °F23.0 °F35 %30.19 in10.0 miCalmClear
7:35 PM50.0 °F23.0 °F35 %30.19 in10.0 miCalmClear
7:55 PM53.6 °F23.0 °F30 %30.19 in10.0 miCalmClear
8:15 PM51.8 °F23.0 °F33 %30.20 in10.0 miCalmClear
8:35 PM53.6 °F23.0 °F30 %30.20 in10.0 miCalmClear
8:55 PM53.6 °F23.0 °F30 %30.20 in10.0 miCalmClear
9:15 PM53.6 °F21.2 °F28 %30.20 in10.0 miCalmClear
9:35 PM53.6 °F21.2 °F28 %30.20 in10.0 miCalmClear
9:55 PM53.6 °F21.2 °F28 %30.20 in10.0 miCalmClear
10:15 PM53.6 °F21.2 °F28 %30.20 in10.0 miCalmClear
10:35 PM53.6 °F19.4 °F26 %30.20 in10.0 miCalmClear
10:55 PM51.8 °F21.2 °F30 %30.20 in10.0 miCalmClear
11:15 PM51.8 °F21.2 °F30 %30.20 in10.0 miCalmClear
11:35 PM53.6 °F21.2 °F28 %30.20 in10.0 miCalmClear
11:55 PM53.6 °F21.2 °F28 %30.20 in10.0 miCalmClear
Hourly data recorded from KGOO, located miles away from Nevada City, California







STORIES FROM OUR PARTNERS